Location: Devargunta
(16.7631°N, 80.9077°E)
Time: 15:39:43
(UTC+00:00)

Cosmos 858 Rocket - Pass Details

Date: 19 January 2021
Orbit: 756 x 774 km, 74.1° (Epoch: 26 February)

Event Time Altitude Azimuth Distance (km) Brightness Sun altitude
Rises 13:32:49 0° 187° (S) 3,228 8.1 -16.1°
Reaches altitude 10° 13:35:12 10° 185° (S) 2,305 7.2 -16.6°
Maximum altitude 13:40:24 69° 102° (ESE) 822 4.4 -17.8°
Enters shadow 13:44:18 18° 22° (NNE) 1,811 6.1 -18.7°
